RYR47GB EPSY-EGSS

Flight info

Callsign RYR47GB
Flight time 2h 14m
Altitude 38000
Route NIVON Y564 IXIXI L29 TADAK M994 GILAS DCT POVEL DCT RKN DCT NIGUG DCT ODVIL DCT NOGRO M40 RINIS
Aircraft B38M/M-SADE3FGIJ1LRWYZ/SB1

Departure

Time 2026-04-24 13:52
Airport Olsztyn-Mazury Airport (EPSY)

Arrival

Time 2026-04-24 16:06
Airport London Stansted Airport (EGSS)
Time Latitude Longitude Altitude Speed Heading
2026-04-24 13:16 53.48777 20.94512 469 ft 0 kts 108°
2026-04-24 13:39 53.48785 20.94478 467 ft 4 kts 115°
2026-04-24 13:39 53.48798 20.94440 466 ft 4 kts 132°
2026-04-24 13:40 53.48818 20.94418 468 ft 4 kts 176°
2026-04-24 13:40 53.48827 20.94419 466 ft 0 kts 198°
2026-04-24 13:45 53.48819 20.94414 469 ft 2 kts 198°
2026-04-24 13:46 53.48795 20.94401 469 ft 5 kts 198°
2026-04-24 13:46 53.48777 20.94354 469 ft 6 kts 264°
2026-04-24 13:46 53.48785 20.94278 469 ft 7 kts 285°
2026-04-24 13:46 53.48786 20.94187 468 ft 9 kts 251°
2026-04-24 13:47 53.48748 20.94097 470 ft 11 kts 217°
2026-04-24 13:47 53.48675 20.94042 470 ft 12 kts 198°
2026-04-24 13:47 53.48585 20.93992 470 ft 14 kts 198°
2026-04-24 13:47 53.48497 20.93943 474 ft 13 kts 198°
2026-04-24 13:48 53.48409 20.93893 471 ft 15 kts 198°
2026-04-24 13:48 53.48308 20.93837 476 ft 15 kts 198°
2026-04-24 13:48 53.48200 20.93776 474 ft 18 kts 198°
2026-04-24 13:48 53.48069 20.93703 467 ft 22 kts 198°
2026-04-24 13:49 53.47899 20.93611 457 ft 30 kts 198°
2026-04-24 13:49 53.47703 20.93500 448 ft 30 kts 198°
2026-04-24 13:49 53.47524 20.93398 450 ft 28 kts 199°
2026-04-24 13:49 53.47363 20.93307 451 ft 22 kts 198°
2026-04-24 13:50 53.47227 20.93231 452 ft 14 kts 198°
2026-04-24 13:50 53.47162 20.93207 452 ft 7 kts 173°
2026-04-24 13:50 53.47134 20.93183 452 ft 2 kts 258°
2026-04-24 13:50 53.47140 20.93174 452 ft 1 kts 350°
2026-04-24 13:51 53.47150 20.93185 452 ft 5 kts 28°
2026-04-24 13:51 53.47174 20.93201 452 ft 0 kts 18°
2026-04-24 13:51 53.47336 20.93290 451 ft 65 kts 18°
2026-04-24 13:51 53.48024 20.93679 468 ft 139 kts 18°
2026-04-24 13:52 53.49073 20.94265 881 ft 168 kts 17°
2026-04-24 13:52 53.50215 20.94882 1829 ft 171 kts 16°
2026-04-24 13:52 53.51350 20.95516 2667 ft 181 kts 13°
2026-04-24 13:52 53.52616 20.96200 3245 ft 200 kts 14°
2026-04-24 13:53 53.54021 20.96620 3842 ft 215 kts 352°
2026-04-24 13:53 53.55441 20.95552 4321 ft 232 kts 316°
2026-04-24 13:53 53.56380 20.93372 4991 ft 236 kts 301°
2026-04-24 13:53 53.57216 20.91044 6153 ft 232 kts 302°
2026-04-24 13:54 53.58064 20.88687 7038 ft 241 kts 302°
2026-04-24 13:54 53.58960 20.86194 7711 ft 257 kts 302°
2026-04-24 13:54 53.59839 20.83496 8473 ft 269 kts 292°
2026-04-24 13:54 53.60215 20.80405 9495 ft 273 kts 277°
2026-04-24 13:55 53.60367 20.77167 10283 ft 283 kts 278°
2026-04-24 13:55 53.60551 20.73768 10804 ft 300 kts 278°
2026-04-24 13:55 53.60753 20.70201 11404 ft 312 kts 278°
2026-04-24 13:55 53.60967 20.66507 12117 ft 320 kts 278°
2026-04-24 13:56 53.61185 20.62768 12964 ft 323 kts 279°
2026-04-24 13:56 53.61407 20.58971 13776 ft 327 kts 279°
2026-04-24 13:56 53.61629 20.55150 14499 ft 330 kts 279°
2026-04-24 13:56 53.61851 20.51287 15229 ft 333 kts 279°
2026-04-24 13:57 53.62075 20.47399 15943 ft 335 kts 279°
2026-04-24 13:57 53.62299 20.43470 16650 ft 338 kts 279°
2026-04-24 13:57 53.62524 20.39508 17330 ft 341 kts 279°
2026-04-24 13:57 53.62749 20.35520 18006 ft 344 kts 279°
2026-04-24 13:58 53.62976 20.31486 18614 ft 347 kts 279°
2026-04-24 13:58 53.63202 20.27431 19189 ft 349 kts 279°
2026-04-24 13:58 53.63429 20.23342 19765 ft 351 kts 279°
2026-04-24 13:58 53.63656 20.19231 20326 ft 354 kts 279°
2026-04-24 13:59 53.63882 20.15099 20883 ft 356 kts 279°
2026-04-24 13:59 53.64107 20.10943 21427 ft 358 kts 279°
2026-04-24 13:59 53.64335 20.06753 21971 ft 361 kts 279°
2026-04-24 13:59 53.64937 20.02697 22496 ft 356 kts 296°
2026-04-24 14:00 53.65938 19.98847 22987 ft 360 kts 296°
2026-04-24 14:00 53.66933 19.94960 23529 ft 362 kts 296°
2026-04-24 14:00 53.67805 19.90955 23989 ft 368 kts 284°
2026-04-24 14:00 53.67910 19.86617 24528 ft 376 kts 267°
2026-04-24 14:01 53.67392 19.82262 25011 ft 381 kts 263°
2026-04-24 14:01 53.66808 19.77895 25460 ft 383 kts 262°
2026-04-24 14:01 53.66203 19.73515 25942 ft 384 kts 262°
2026-04-24 14:01 53.65584 19.69136 26402 ft 386 kts 262°
2026-04-24 14:02 53.64953 19.64727 26851 ft 388 kts 262°
2026-04-24 14:02 53.64313 19.60291 27263 ft 389 kts 262°
2026-04-24 14:02 53.63672 19.55862 27728 ft 390 kts 262°
2026-04-24 14:02 53.63027 19.51423 28169 ft 391 kts 262°
2026-04-24 14:03 53.62377 19.46960 28583 ft 393 kts 262°
2026-04-24 14:03 53.61723 19.42488 29011 ft 394 kts 262°
2026-04-24 14:03 53.61064 19.37988 29389 ft 396 kts 262°
2026-04-24 14:03 53.60400 19.33469 29789 ft 398 kts 262°
2026-04-24 14:04 53.59734 19.28950 30146 ft 400 kts 262°
2026-04-24 14:04 53.59061 19.24404 30461 ft 402 kts 262°
2026-04-24 14:04 53.58612 19.21368 30659 ft 403 kts 262°
2026-04-24 14:04 53.57930 19.16782 30964 ft 405 kts 262°
2026-04-24 14:05 53.57244 19.12176 31262 ft 407 kts 262°
2026-04-24 14:05 53.56553 19.07551 31561 ft 409 kts 262°
2026-04-24 14:05 53.55856 19.02901 31853 ft 411 kts 262°
2026-04-24 14:05 53.55154 18.98226 32147 ft 413 kts 262°
2026-04-24 14:06 53.54447 18.93537 32417 ft 415 kts 262°
2026-04-24 14:06 53.53738 18.88850 32754 ft 415 kts 262°
2026-04-24 14:06 53.53027 18.84146 33150 ft 414 kts 262°
2026-04-24 14:06 53.52319 18.79462 33543 ft 413 kts 263°
2026-04-24 14:07 53.51768 18.74765 33885 ft 410 kts 266°
2026-04-24 14:07 53.51223 18.70069 34221 ft 409 kts 265°
2026-04-24 14:07 53.50668 18.65379 34518 ft 409 kts 265°
2026-04-24 14:07 53.50108 18.60696 34813 ft 409 kts 265°
2026-04-24 14:08 53.49544 18.56010 35101 ft 409 kts 265°
2026-04-24 14:08 53.48979 18.51332 35377 ft 409 kts 265°
2026-04-24 14:08 53.48413 18.46661 35662 ft 409 kts 265°
2026-04-24 14:08 53.47843 18.41978 35934 ft 409 kts 265°
2026-04-24 14:09 53.47271 18.37298 36207 ft 409 kts 265°
2026-04-24 14:09 53.46698 18.32625 36445 ft 409 kts 265°
2026-04-24 14:09 53.46124 18.27955 36717 ft 409 kts 265°
2026-04-24 14:09 53.45548 18.23289 36969 ft 408 kts 265°
2026-04-24 14:10 53.44971 18.18623 37222 ft 408 kts 265°
2026-04-24 14:10 53.44392 18.13964 37444 ft 408 kts 265°
2026-04-24 14:10 53.43812 18.09309 37691 ft 408 kts 265°
2026-04-24 14:10 53.43230 18.04660 37904 ft 408 kts 265°
2026-04-24 14:11 53.42059 17.95348 37974 ft 408 kts 265°
2026-04-24 14:12 53.40303 17.81494 37958 ft 407 kts 265°
2026-04-24 14:12 53.39111 17.72174 37964 ft 406 kts 265°
2026-04-24 14:13 53.37934 17.63022 37974 ft 405 kts 265°
2026-04-24 14:13 53.36741 17.53814 37977 ft 405 kts 265°
2026-04-24 14:14 53.35541 17.44607 37981 ft 405 kts 265°
2026-04-24 14:14 53.33726 17.30796 37983 ft 405 kts 264°
2026-04-24 14:15 53.32511 17.21622 37985 ft 405 kts 264°
2026-04-24 14:15 53.31287 17.12438 37979 ft 404 kts 264°
2026-04-24 14:16 53.30059 17.03266 37990 ft 404 kts 264°
2026-04-24 14:17 53.27850 16.89634 37995 ft 417 kts 248°
2026-04-24 14:17 53.22882 16.77434 38007 ft 426 kts 243°
2026-04-24 14:18 53.19438 16.69370 37997 ft 426 kts 242°
2026-04-24 14:18 53.15974 16.61339 37998 ft 427 kts 242°
2026-04-24 14:19 53.12501 16.53320 38001 ft 427 kts 242°
2026-04-24 14:19 53.09031 16.45332 37983 ft 425 kts 242°
2026-04-24 14:20 53.05584 16.37422 38013 ft 426 kts 242°
2026-04-24 14:20 53.02116 16.29487 38016 ft 426 kts 242°
2026-04-24 14:21 52.98631 16.21541 38024 ft 426 kts 242°
2026-04-24 14:21 52.95143 16.13612 38025 ft 426 kts 241°
2026-04-24 14:22 52.91644 16.05682 38028 ft 426 kts 241°
2026-04-24 14:23 52.86379 15.93796 38037 ft 427 kts 241°
2026-04-24 14:23 52.82882 15.85857 38028 ft 424 kts 245°
2026-04-24 14:23 52.81699 15.81544 38015 ft 406 kts 261°
2026-04-24 14:24 52.80996 15.77037 38034 ft 407 kts 261°
2026-04-24 14:24 52.79640 15.67982 38056 ft 406 kts 262°
2026-04-24 14:25 52.78361 15.58904 38044 ft 405 kts 263°
2026-04-24 14:25 52.77103 15.49838 38047 ft 405 kts 263°
2026-04-24 14:26 52.75841 15.40774 38051 ft 405 kts 263°
2026-04-24 14:26 52.74573 15.31716 38032 ft 405 kts 263°
2026-04-24 14:27 52.73293 15.22634 38053 ft 407 kts 262°
2026-04-24 14:27 52.72005 15.13543 38056 ft 406 kts 262°
2026-04-24 14:28 52.70714 15.04485 38059 ft 406 kts 262°
2026-04-24 14:28 52.69423 14.95484 38050 ft 406 kts 262°
2026-04-24 14:29 52.68303 14.86345 38038 ft 399 kts 272°
2026-04-24 14:29 52.68354 14.77240 38057 ft 398 kts 275°
2026-04-24 14:30 52.68386 14.69672 38062 ft 398 kts 275°
2026-04-24 14:30 52.68419 14.59075 38057 ft 398 kts 274°
2026-04-24 14:31 52.68371 14.49960 38064 ft 399 kts 272°
2026-04-24 14:31 52.68220 14.40812 38066 ft 399 kts 273°
2026-04-24 14:32 52.68072 14.31678 38066 ft 399 kts 273°
2026-04-24 14:32 52.67918 14.22543 38061 ft 399 kts 272°
2026-04-24 14:33 52.67757 14.13416 38053 ft 399 kts 272°
2026-04-24 14:33 52.67590 14.04279 38070 ft 399 kts 272°
2026-04-24 14:34 52.67416 13.95148 38074 ft 399 kts 272°
2026-04-24 14:34 52.67234 13.86012 38074 ft 399 kts 272°
2026-04-24 14:35 52.67045 13.76875 38073 ft 399 kts 272°
2026-04-24 14:35 52.66850 13.67744 38080 ft 399 kts 272°
2026-04-24 14:36 52.66647 13.58605 38088 ft 399 kts 271°
2026-04-24 14:36 52.66437 13.49468 38083 ft 399 kts 271°
2026-04-24 14:37 52.66220 13.40335 38084 ft 399 kts 271°
2026-04-24 14:37 52.65996 13.31214 38085 ft 399 kts 271°
2026-04-24 14:38 52.65766 13.22090 38087 ft 399 kts 271°
2026-04-24 14:38 52.65528 13.12950 38064 ft 399 kts 271°
2026-04-24 14:39 52.65282 13.03814 38087 ft 400 kts 270°
2026-04-24 14:39 52.65030 12.94678 38082 ft 399 kts 270°
2026-04-24 14:40 52.64771 12.85552 38089 ft 399 kts 270°
2026-04-24 14:40 52.64505 12.76420 38091 ft 399 kts 270°
2026-04-24 14:41 52.64232 12.67277 38094 ft 399 kts 270°
2026-04-24 14:41 52.63951 12.58145 38087 ft 399 kts 270°
2026-04-24 14:42 52.63714 12.50570 38106 ft 399 kts 270°
2026-04-24 14:42 52.63373 12.39965 38102 ft 399 kts 270°
2026-04-24 14:43 52.63072 12.30847 38100 ft 399 kts 270°
2026-04-24 14:43 52.62763 12.21717 38108 ft 399 kts 270°
2026-04-24 14:44 52.62448 12.12601 38098 ft 400 kts 269°
2026-04-24 14:44 52.62125 12.03458 38114 ft 400 kts 269°
2026-04-24 14:45 52.61795 11.94292 38113 ft 399 kts 269°
2026-04-24 14:45 52.61461 11.85229 38117 ft 399 kts 269°
2026-04-24 14:46 52.61118 11.76116 38122 ft 399 kts 269°
2026-04-24 14:46 52.60768 11.67014 38126 ft 399 kts 268°
2026-04-24 14:47 52.60469 11.59378 38125 ft 399 kts 268°
2026-04-24 14:47 52.60066 11.48801 38117 ft 398 kts 271°
2026-04-24 14:48 52.59825 11.39714 38116 ft 399 kts 266°
2026-04-24 14:48 52.59334 11.30656 38137 ft 399 kts 267°
2026-04-24 14:49 52.58921 11.21570 38142 ft 398 kts 268°
2026-04-24 14:49 52.58527 11.12487 38143 ft 398 kts 268°
2026-04-24 14:50 52.58131 11.03405 38147 ft 398 kts 267°
2026-04-24 14:50 52.57731 10.94344 38146 ft 397 kts 267°
2026-04-24 14:51 52.57393 10.86826 38146 ft 397 kts 267°
2026-04-24 14:51 52.56977 10.77766 38160 ft 397 kts 266°
2026-04-24 14:52 52.56543 10.68709 38161 ft 397 kts 266°
2026-04-24 14:52 52.56111 10.59662 38159 ft 397 kts 266°
2026-04-24 14:53 52.55673 10.50618 38163 ft 397 kts 266°
2026-04-24 14:53 52.55228 10.41582 38165 ft 397 kts 266°
2026-04-24 14:54 52.54776 10.32543 38168 ft 396 kts 265°
2026-04-24 14:54 52.54319 10.23539 38183 ft 396 kts 265°
2026-04-24 14:55 52.53856 10.14534 38180 ft 396 kts 265°
2026-04-24 14:55 52.53386 10.05545 38183 ft 396 kts 265°
2026-04-24 14:56 52.52908 9.96547 38188 ft 395 kts 265°
2026-04-24 14:56 52.52425 9.87555 38183 ft 395 kts 265°
2026-04-24 14:57 52.51934 9.78575 38155 ft 395 kts 265°
2026-04-24 14:57 52.51438 9.69606 38157 ft 395 kts 265°
2026-04-24 14:58 52.50937 9.60692 38156 ft 395 kts 265°
2026-04-24 14:58 52.50427 9.51715 38189 ft 395 kts 265°
2026-04-24 14:59 52.49909 9.42737 38183 ft 395 kts 264°
2026-04-24 14:59 52.49385 9.33768 38180 ft 395 kts 264°
2026-04-24 15:00 52.48854 9.24801 38178 ft 395 kts 264°
2026-04-24 15:00 52.48317 9.15842 38180 ft 395 kts 264°
2026-04-24 15:01 52.47773 9.06882 38184 ft 395 kts 264°
2026-04-24 15:01 52.47222 8.97930 38183 ft 395 kts 264°
2026-04-24 15:02 52.46664 8.88981 38182 ft 394 kts 264°
2026-04-24 15:02 52.46101 8.80048 38182 ft 394 kts 264°
2026-04-24 15:03 52.45531 8.71110 38192 ft 394 kts 264°
2026-04-24 15:03 52.44954 8.62179 38172 ft 394 kts 263°
2026-04-24 15:04 52.44370 8.53247 38192 ft 394 kts 263°
2026-04-24 15:04 52.43781 8.44337 38190 ft 394 kts 263°
2026-04-24 15:05 52.43184 8.35414 38211 ft 394 kts 263°
2026-04-24 15:05 52.42580 8.26494 38205 ft 394 kts 263°
2026-04-24 15:06 52.41969 8.17568 38205 ft 394 kts 263°
2026-04-24 15:06 52.41352 8.08650 38213 ft 394 kts 263°
2026-04-24 15:07 52.40729 7.99745 38214 ft 394 kts 263°
2026-04-24 15:07 52.40098 7.90829 38217 ft 395 kts 263°
2026-04-24 15:08 52.39457 7.81876 38215 ft 396 kts 263°
2026-04-24 15:08 52.38810 7.72928 38216 ft 396 kts 263°
2026-04-24 15:09 52.38158 7.63995 38215 ft 396 kts 263°
2026-04-24 15:09 52.37497 7.55051 38217 ft 396 kts 263°
2026-04-24 15:10 52.36830 7.46118 38224 ft 396 kts 263°
2026-04-24 15:10 52.36153 7.37143 38224 ft 399 kts 263°
2026-04-24 15:11 52.35466 7.28130 38226 ft 399 kts 263°
2026-04-24 15:11 52.34774 7.19142 38224 ft 399 kts 263°
2026-04-24 15:12 52.34075 7.10135 38224 ft 399 kts 263°
2026-04-24 15:12 52.33020 6.96689 38226 ft 399 kts 263°
2026-04-24 15:13 52.32306 6.87685 38213 ft 400 kts 262°
2026-04-24 15:13 52.31583 6.78665 38235 ft 402 kts 262°
2026-04-24 15:14 52.30840 6.69613 38239 ft 402 kts 262°
2026-04-24 15:14 52.30092 6.60553 38237 ft 402 kts 262°
2026-04-24 15:15 52.29342 6.51517 38240 ft 402 kts 262°
2026-04-24 15:15 52.28590 6.42531 38241 ft 402 kts 262°
2026-04-24 15:16 52.27826 6.33483 38241 ft 402 kts 262°
2026-04-24 15:16 52.27056 6.24448 38248 ft 402 kts 262°
2026-04-24 15:17 52.26278 6.15415 38243 ft 402 kts 262°
2026-04-24 15:17 52.25493 6.06373 38248 ft 402 kts 262°
2026-04-24 15:18 52.24703 5.97355 38245 ft 402 kts 262°
2026-04-24 15:18 52.23904 5.88329 38247 ft 402 kts 262°
2026-04-24 15:19 52.23099 5.79297 38249 ft 402 kts 261°
2026-04-24 15:19 52.22287 5.70279 38250 ft 402 kts 261°
2026-04-24 15:20 52.21468 5.61258 38277 ft 402 kts 261°
2026-04-24 15:20 52.20642 5.52250 38278 ft 402 kts 261°
2026-04-24 15:21 52.19808 5.43226 38278 ft 402 kts 261°
2026-04-24 15:21 52.18970 5.34217 38277 ft 403 kts 261°
2026-04-24 15:22 52.18128 5.25247 38276 ft 403 kts 261°
2026-04-24 15:23 52.16842 5.11739 38256 ft 403 kts 261°
2026-04-24 15:23 52.15536 4.98160 38279 ft 405 kts 261°
2026-04-24 15:25 52.13469 4.77012 38287 ft 405 kts 261°
2026-04-24 15:26 52.11067 4.52936 38274 ft 405 kts 260°
2026-04-24 15:27 52.08302 4.25837 38284 ft 405 kts 260°
2026-04-24 15:29 52.05478 3.98798 38289 ft 405 kts 260°
2026-04-24 15:30 52.04057 3.85407 37440 ft 394 kts 260°
2026-04-24 15:31 52.02353 3.69593 36121 ft 383 kts 259°
2026-04-24 15:32 52.00370 3.51412 34595 ft 370 kts 259°
2026-04-24 15:33 51.98574 3.35184 32656 ft 360 kts 259°
2026-04-24 15:33 51.97248 3.23339 31339 ft 353 kts 259°
2026-04-24 15:34 51.96487 3.15541 30471 ft 349 kts 264°
2026-04-24 15:35 51.95763 3.03953 29237 ft 338 kts 262°
2026-04-24 15:35 51.95263 2.96449 28500 ft 331 kts 262°
2026-04-24 15:35 51.95014 2.92757 28144 ft 328 kts 262°
2026-04-24 15:36 51.94769 2.89152 27783 ft 324 kts 262°
2026-04-24 15:36 51.94357 2.83116 27191 ft 319 kts 262°
2026-04-24 15:36 51.94113 2.79564 26842 ft 316 kts 262°
2026-04-24 15:37 51.93868 2.76014 26513 ft 319 kts 262°
2026-04-24 15:37 51.93618 2.72416 26162 ft 324 kts 262°
2026-04-24 15:37 51.93365 2.68776 25817 ft 326 kts 262°
2026-04-24 15:37 51.93035 2.63945 25302 ft 326 kts 262°
2026-04-24 15:38 51.92867 2.61491 25066 ft 324 kts 262°
2026-04-24 15:38 51.92618 2.57876 24735 ft 321 kts 262°
2026-04-24 15:38 51.92371 2.54292 24396 ft 319 kts 262°
2026-04-24 15:38 51.92124 2.50734 24065 ft 317 kts 262°
2026-04-24 15:39 51.91877 2.47191 23704 ft 315 kts 262°
2026-04-24 15:39 51.91635 2.43723 23333 ft 313 kts 262°
2026-04-24 15:39 51.91391 2.40251 22989 ft 310 kts 262°
2026-04-24 15:39 51.91148 2.36806 22653 ft 306 kts 262°
2026-04-24 15:40 51.90908 2.33404 22354 ft 302 kts 262°
2026-04-24 15:40 51.90806 2.29988 22029 ft 308 kts 266°
2026-04-24 15:40 51.90739 2.26509 21667 ft 312 kts 266°
2026-04-24 15:40 51.90662 2.22985 21352 ft 314 kts 266°
2026-04-24 15:41 51.90578 2.19454 21023 ft 314 kts 266°
2026-04-24 15:41 51.90491 2.15928 20696 ft 313 kts 266°
2026-04-24 15:41 51.90402 2.12414 20367 ft 312 kts 266°
2026-04-24 15:41 51.90312 2.08900 20037 ft 312 kts 266°
2026-04-24 15:42 51.90220 2.05400 19707 ft 310 kts 267°
2026-04-24 15:42 51.90128 2.01920 19376 ft 308 kts 267°
2026-04-24 15:42 51.90036 1.98478 19051 ft 307 kts 267°
2026-04-24 15:42 51.89943 1.95036 18726 ft 306 kts 267°
2026-04-24 15:43 51.89851 1.91600 18372 ft 305 kts 268°
2026-04-24 15:43 51.90113 1.88217 17962 ft 306 kts 289°
2026-04-24 15:43 51.91025 1.85130 17673 ft 304 kts 295°
2026-04-24 15:43 51.91987 1.82064 17357 ft 306 kts 296°
2026-04-24 15:44 51.92969 1.79000 17030 ft 306 kts 296°
2026-04-24 15:44 51.93955 1.75961 16698 ft 304 kts 297°
2026-04-24 15:44 51.94939 1.72948 16377 ft 301 kts 297°
2026-04-24 15:44 51.95919 1.69958 16053 ft 299 kts 297°
2026-04-24 15:45 51.96891 1.66998 15740 ft 297 kts 297°
2026-04-24 15:45 51.97857 1.64055 15429 ft 294 kts 297°
2026-04-24 15:45 51.98813 1.61140 15115 ft 293 kts 297°
2026-04-24 15:45 51.99767 1.58229 14802 ft 291 kts 297°
2026-04-24 15:46 52.00711 1.55346 14485 ft 289 kts 297°
2026-04-24 15:46 52.01651 1.52470 14180 ft 288 kts 297°
2026-04-24 15:46 52.02591 1.49593 13838 ft 290 kts 297°
2026-04-24 15:46 52.03537 1.46694 13479 ft 292 kts 297°
2026-04-24 15:47 52.04488 1.43775 13137 ft 293 kts 297°
2026-04-24 15:47 52.05438 1.40854 12821 ft 292 kts 297°
2026-04-24 15:47 52.06393 1.37939 12503 ft 292 kts 300°
2026-04-24 15:47 52.07588 1.35294 12260 ft 289 kts 306°
2026-04-24 15:48 52.08666 1.32557 12045 ft 286 kts 298°
2026-04-24 15:48 52.09579 1.29703 11897 ft 285 kts 296°
2026-04-24 15:48 52.10464 1.26828 11748 ft 285 kts 296°
2026-04-24 15:48 52.11334 1.23944 11594 ft 282 kts 292°
2026-04-24 15:49 52.11705 1.20852 11411 ft 280 kts 268°
2026-04-24 15:49 52.11418 1.17756 11318 ft 273 kts 258°
2026-04-24 15:49 52.10993 1.14805 11249 ft 264 kts 257°
2026-04-24 15:49 52.10570 1.11874 11198 ft 272 kts 257°
2026-04-24 15:50 52.10129 1.08835 11145 ft 279 kts 257°
2026-04-24 15:50 52.09679 1.05739 11081 ft 282 kts 257°
2026-04-24 15:50 52.09227 1.02639 11029 ft 282 kts 257°
2026-04-24 15:50 52.08774 0.99543 10971 ft 282 kts 257°
2026-04-24 15:51 52.08320 0.96440 10913 ft 282 kts 257°
2026-04-24 15:51 52.07865 0.93345 10823 ft 282 kts 257°
2026-04-24 15:51 52.07414 0.90280 10675 ft 282 kts 257°
2026-04-24 15:51 52.06953 0.87154 10414 ft 282 kts 257°
2026-04-24 15:52 52.06501 0.84089 10315 ft 276 kts 257°
2026-04-24 15:52 52.06055 0.81076 10304 ft 274 kts 257°
2026-04-24 15:52 52.05612 0.78092 10296 ft 275 kts 257°
2026-04-24 15:52 52.05163 0.75069 10286 ft 275 kts 257°
2026-04-24 15:53 52.04713 0.72044 10286 ft 276 kts 257°
2026-04-24 15:53 52.04262 0.69018 10280 ft 275 kts 256°
2026-04-24 15:53 52.03810 0.65995 10281 ft 276 kts 256°
2026-04-24 15:53 52.03358 0.62975 10286 ft 275 kts 256°
2026-04-24 15:54 52.02905 0.59951 10284 ft 276 kts 256°
2026-04-24 15:54 52.02450 0.56922 10288 ft 276 kts 256°
2026-04-24 15:54 52.01994 0.53894 10283 ft 277 kts 256°
2026-04-24 15:54 52.01536 0.50858 10287 ft 277 kts 256°
2026-04-24 15:55 52.01080 0.47841 10289 ft 276 kts 256°
2026-04-24 15:55 52.00745 0.44780 10270 ft 274 kts 266°
2026-04-24 15:55 52.00649 0.41688 9934 ft 275 kts 266°
2026-04-24 15:55 52.00545 0.38608 9602 ft 274 kts 266°
2026-04-24 15:56 52.00436 0.35523 9246 ft 273 kts 266°
2026-04-24 15:56 52.00313 0.32449 8909 ft 273 kts 266°
2026-04-24 15:56 52.00151 0.29387 8576 ft 272 kts 258°
2026-04-24 15:56 51.99373 0.26643 8253 ft 269 kts 231°
2026-04-24 15:57 51.98083 0.24448 7893 ft 269 kts 225°
2026-04-24 15:57 51.96758 0.22315 7597 ft 266 kts 223°
2026-04-24 15:57 51.95423 0.20279 7143 ft 263 kts 222°
2026-04-24 15:57 51.94078 0.18239 6536 ft 266 kts 222°
2026-04-24 15:58 51.92730 0.16201 6024 ft 264 kts 222°
2026-04-24 15:58 51.91384 0.14172 5478 ft 264 kts 222°
2026-04-24 15:58 51.90044 0.12151 4960 ft 263 kts 221°
2026-04-24 15:58 51.88703 0.10131 4456 ft 262 kts 222°
2026-04-24 15:59 51.87409 0.08180 4285 ft 248 kts 221°
2026-04-24 15:59 51.86169 0.06316 4169 ft 241 kts 222°
2026-04-24 15:59 51.84951 0.04453 4029 ft 240 kts 222°
2026-04-24 15:59 51.83736 0.02591 3892 ft 241 kts 222°
2026-04-24 16:00 51.82524 0.00722 3777 ft 242 kts 222°
2026-04-24 16:00 51.81302 -0.01144 3656 ft 241 kts 221°
2026-04-24 16:00 51.79940 -0.02559 3520 ft 234 kts 194°
2026-04-24 16:00 51.78355 -0.02727 3424 ft 228 kts 171°
2026-04-24 16:01 51.76749 -0.02549 3304 ft 230 kts 174°
2026-04-24 16:01 51.75236 -0.02054 3143 ft 223 kts 148°
2026-04-24 16:01 51.74241 -0.00264 3012 ft 216 kts 110°
2026-04-24 16:01 51.74214 0.02090 2983 ft 214 kts 71°
2026-04-24 16:02 51.75041 0.04047 3008 ft 211 kts 42°
2026-04-24 16:02 51.76231 0.05380 3001 ft 206 kts 38°
2026-04-24 16:02 51.77345 0.06821 3010 ft 205 kts 43°
2026-04-24 16:02 51.78379 0.08320 2839 ft 194 kts 45°
2026-04-24 16:03 51.79333 0.09764 2602 ft 184 kts 45°
2026-04-24 16:03 51.80250 0.11143 2376 ft 177 kts 45°
2026-04-24 16:03 51.81134 0.12456 2137 ft 167 kts 45°
2026-04-24 16:03 51.81955 0.13677 1977 ft 158 kts 45°
2026-04-24 16:04 51.82752 0.14875 1737 ft 152 kts 45°
2026-04-24 16:04 51.83508 0.16004 1512 ft 145 kts 45°
2026-04-24 16:04 51.84239 0.17098 1357 ft 143 kts 46°
2026-04-24 16:04 51.84963 0.18191 1161 ft 142 kts 46°
2026-04-24 16:05 51.86430 0.20343 738 ft 141 kts 46°
2026-04-24 16:05 51.87143 0.21432 546 ft 139 kts 46°
2026-04-24 16:06 51.88480 0.23451 344 ft 102 kts 42°
2026-04-24 16:06 51.88844 0.23995 346 ft 57 kts 43°
2026-04-24 16:06 51.89138 0.24684 357 ft 20 kts 69°
2026-04-24 16:07 51.89169 0.24832 353 ft 8 kts 90°
2026-04-24 16:07 51.89156 0.24892 360 ft 3 kts 113°
2026-04-24 16:07 51.89194 0.25010 355 ft 9 kts 45°
2026-04-24 16:08 51.89235 0.25095 362 ft 10 kts 58°
2026-04-24 16:08 51.89338 0.25296 358 ft 10 kts 43°
2026-04-24 16:09 51.89408 0.25460 361 ft 9 kts 90°
2026-04-24 16:09 51.89379 0.25549 360 ft 10 kts 143°
2026-04-24 16:09 51.89339 0.25579 356 ft 10 kts 150°
2026-04-24 16:09 51.89272 0.25687 357 ft 8 kts 133°
2026-04-24 16:10 51.89216 0.25657 361 ft 0 kts 223°